Wind_Speed
3 4 4 5 6 6 6 7 7 7 7 7 7 8 8 9 9 9 9 9 9 9 10 10 10 10 10 10 10 9 9 10 10 11 12 10 10 13 15 13 9 8 11 9 6 6 5 4 5 7 7 6 4 5 5 5 6 6 4 3 5 6 7 6 8 7 5 5 5 4 3 1 3 4 4 4 3 3 4 4 3 4 4 6 10 14 18 18
4 4 4 5 5 6 6 7 7 7 7 7 8 8 8 9 9 9 9 9 9 9 9 9 9 9 8 7 6 6 6 6 6 7 6 5 6 10 12 12 10 8 10 11 8 6 5 4 5 6 6 5 3 5 6 4 6 4 3 3 6 6 6 5 7 6 4 6 4 2 2 1 2 3 3 3 3 3 3 4 4 5 6 9 12 15 17 18
5 5 4 4 5 5 6 6 7 7 7 7 8 8 8 9 8 9 9 9 8 8 8 8 9 8 7 4 3 3 3 2 3 2 2 2 3 7 8 10 11 9 9 10 9 7 6 4 4 5 7 5 3 5 5 5 5 3 4 3 7 6 3 4 6 5 3 4 2 2 3 2 1 1 2 2 2 4 3 3 4 6 8 10 13 15 16 17
6 5 5 4 4 4 5 6 6 7 7 7 7 8 8 8 8 8 8 8 8 8 8 8 8 7 4 2 2 2 2 2 2 3 2 1 2 4 6 7 10 10 9 11 11 8 6 4 4 5 8 5 3 4 4 7 5 3 4 5 6 5 3 5 6 4 2 1 1 2 2 2 2 2 3 3 2 3 3 3 3 5 8 11 14 15 16 16
5 5 5 5 4 4 5 5 6 7 7 7 7 7 7 8 7 7 7 7 7 7 7 7 6 5 2 2 3 3 3 2 5 4 2 1 3 3 4 7 10 10 11 14 12 8 6 4 5 5 6 4 4 3 5 8 6 3 4 6 6 5 4 5 5 3 2 1 1 3 2 1 2 3 4 4 3 0 3 2 3 5 8 11 14 15 15 16
5 5 5 5 5 5 5 5 6 6 7 7 7 7 7 7 7 6 6 6 6 6 6 5 4 3 3 3 3 3 3 1 5 2 1 2 4 2 3 7 10 12 13 13 10 8 7 5 6 5 5 3 4 4 6 8 5 2 4 7 7 6 5 5 5 2 2 1 1 2 1 0 2 3 3 5 6 2 2 1 1 5 9 10 12 14 15 16
7 6 6 6 5 5 5 6 6 6 7 7 6 6 6 6 6 5 5 5 5 5 5 3 3 3 4 4 3 3 2 3 3 2 0 3 5 3 4 8 11 13 14 13 11 9 7 6 6 4 5 3 4 5 7 6 3 3 5 8 8 6 5 5 5 3 2 2 2 1 1 2 3 2 1 5 7 5 4 2 2 6 11 11 12 14 14 15
9 8 8 7 6 6 6 6 6 6 6 6 6 6 6 5 5 4 4 4 4 4 3 3 4 4 4 4 2 3 3 2 1 2 1 3 5 4 5 9 12 14 14 14 11 9 7 7 5 4 4 2 4 5 8 5 0 4 8 8 6 5 6 5 5 4 3 2 2 2 3 1 3 4 5 7 5 3 5 3 4 8 12 13 13 13 13 14
11 10 9 9 8 7 6 7 6 7 6 7 6 6 5 5 4 3 3 3 2 3 2 4 5 5 5 4 3 4 3 3 2 2 2 3 5 4 5 9 13 15 14 12 10 9 7 6 4 4 4 4 5 5 8 6 2 8 10 8 5 4 5 4 4 3 2 2 2 3 3 2 2 5 6 6 3 3 5 4 7 11 13 13 13 13 13 13
12 11 11 10 9 8 7 7 7 7 7 7 6 6 5 4 3 2 2 2 2 2 4 5 5 5 4 4 5 3 5 4 3 3 2 3 4 4 5 7 12 15 13 11 10 9 6 4 2 3 5 4 5 5 6 6 6 9 9 5 4 2 3 2 2 3 2 1 1 4 4 2 2 4 3 3 3 5 6 6 9 11 12 13 12 12 12 12
11 11 11 11 10 9 8 8 7 7 7 6 6 5 5 3 2 1 1 1 3 4 5 5 5 4 4 5 6 1 6 5 3 2 3 4 5 5 5 7 11 13 11 11 10 8 5 2 1 3 3 2 5 5 3 6 8 9 8 4 1 2 2 2 1 2 2 0 1 5 7 5 4 4 2 3 3 6 6 6 9 9 10 11 11 11 11 12
9 10 10 10 10 9 9 9 8 7 6 6 5 5 4 3 2 2 1 2 4 5 5 4 4 3 3 5 5 1 7 6 3 1 4 4 6 7 6 7 10 11 9 9 8 7 5 2 0 4 3 4 6 4 3 6 9 8 7 5 2 4 3 2 1 2 3 1 2 6 7 5 6 4 1 1 4 5 5 6 8 9 9 9 10 11 11 11
7 8 9 9 9 9 9 9 8 7 6 5 4 4 3 2 2 2 2 3 4 4 4 3 3 2 3 4 4 4 6 6 4 1 3 3 7 8 8 9 12 11 8 7 7 8 7 2 1 4 4 6 6 5 6 7 8 7 5 5 3 5 4 3 1 2 3 1 1 6 4 2 5 5 3 3 4 6 6 6 7 8 8 8 10 10 10 11
7 7 8 8 8 9 9 9 8 7 6 4 3 3 2 2 3 3 3 4 4 4 3 3 1 2 3 2 4 5 6 6 5 2 3 3 5 8 8 11 13 13 11 7 8 11 9 2 2 4 4 5 5 7 9 8 5 6 5 4 4 3 4 5 1 2 3 2 2 5 5 2 6 6 6 5 5 7 6 6 7 8 9 9 10 10 11 11
7 7 7 8 8 8 9 8 8 7 5 4 2 2 1 4 4 4 4 3 4 4 3 2 1 1 3 3 3 5 6 6 4 3 2 3 5 6 8 11 12 14 13 9 9 12 9 3 3 5 3 3 6 8 8 6 4 4 5 4 2 2 3 6 3 2 2 1 4 6 5 2 4 5 6 8 8 8 6 5 6 8 9 9 10 11 11 11
7 7 7 7 7 8 8 8 7 7 5 3 2 2 2 4 6 5 4 3 4 3 3 2 2 1 3 3 4 5 6 5 4 5 2 4 5 6 10 11 12 14 13 10 10 10 7 4 3 5 4 4 6 6 5 5 5 4 4 4 1 3 2 3 4 2 2 1 5 7 5 5 1 6 6 10 10 8 7 5 6 7 8 9 10 10 11 11
7 6 7 7 7 8 8 7 7 6 4 3 2 1 2 5 6 6 4 4 3 3 3 1 2 2 3 2 4 5 5 5 6 5 4 5 6 8 12 10 10 12 10 8 9 8 6 5 4 4 6 7 5 4 5 5 4 3 2 4 1 3 5 1 3 4 3 4 5 7 8 9 5 4 7 10 11 9 7 6 6 8 9 9 9 10 11 12
7 6 6 7 7 7 7 6 6 6 4 3 2 2 3 4 6 6 5 5 3 3 3 3 4 3 3 6 5 5 6 6 7 6 6 7 7 10 9 8 10 12 10 8 8 8 7 6 6 5 6 6 5 6 6 2 4 3 3 4 3 3 5 3 2 2 2 5 7 8 8 11 10 5 7 11 12 10 9 7 7 8 9 10 10 10 11 12
7 6 6 6 7 7 6 5 6 5 4 4 3 3 3 4 4 4 5 6 5 3 0 6 8 1 3 9 6 5 6 6 8 7 8 8 8 9 6 8 11 11 10 8 9 10 8 6 6 6 6 7 7 7 6 6 7 7 7 7 6 6 5 3 4 2 2 6 8 9 9 10 10 6 7 11 12 11 10 9 8 9 9 10 11 11 11 12
8 6 5 6 6 6 5 5 6 5 4 4 5 6 5 4 4 3 6 8 8 4 3 3 8 3 3 9 5 4 5 7 8 8 10 10 9 8 7 8 10 10 8 6 8 9 7 7 8 8 8 7 5 4 5 6 5 7 8 8 8 8 5 2 2 2 2 6 7 6 9 11 11 9 5 10 12 11 12 12 11 11 11 12 13 13 14 13
8 5 4 5 4 4 4 5 6 5 5 6 7 7 2 2 2 3 4 8 7 7 4 3 7 6 2 6 5 4 6 7 8 9 11 11 9 9 9 8 9 8 6 4 4 5 5 8 9 10 7 3 1 2 4 6 7 8 8 8 7 7 5 2 3 2 1 4 6 6 9 11 11 10 5 9 11 11 12 13 13 14 14 13 15 15 15 14
7 4 4 4 3 3 4 5 6 5 6 7 9 6 1 1 1 4 1 4 3 5 7 6 8 7 5 7 6 5 6 8 10 11 12 12 10 9 8 9 8 5 6 5 4 4 7 11 11 9 3 2 2 3 6 8 9 9 8 7 6 6 5 1 4 2 2 3 7 7 10 11 10 9 6 10 11 11 12 14 14 15 15 16 16 17 17 16
6 3 3 2 2 3 5 5 5 5 7 9 9 6 3 3 3 3 3 3 2 3 4 5 7 6 7 8 6 6 7 9 11 12 13 12 10 8 7 9 7 4 6 8 8 7 7 6 7 6 5 6 6 4 6 8 8 9 8 7 6 5 5 1 4 3 4 4 8 9 10 9 7 7 6 9 11 10 11 14 15 15 16 17 18 17 17 17
5 2 2 1 3 5 6 5 5 5 7 9 10 7 6 4 2 2 3 3 1 3 3 5 6 6 8 7 6 8 8 6 8 12 14 13 9 6 6 7 6 5 6 8 8 10 6 2 3 3 6 8 7 6 8 8 7 9 10 9 8 6 7 5 2 2 5 6 5 7 8 4 2 4 4 6 8 9 11 13 15 16 17 17 18 17 17 17
4 2 1 3 6 7 7 7 6 6 8 9 9 7 6 3 1 1 2 3 3 4 3 5 6 6 9 8 6 7 6 6 7 9 14 14 9 5 4 4 5 6 6 6 6 9 6 5 7 4 6 7 7 7 8 8 7 8 9 9 9 10 10 8 6 6 6 4 3 4 7 1 1 3 2 4 5 7 10 12 14 16 16 16 17 18 17 17
3 1 2 5 8 10 10 8 8 9 9 7 6 7 6 2 2 2 3 4 4 4 4 5 5 7 10 9 8 7 7 7 7 8 13 13 9 5 3 5 5 4 2 4 5 6 4 5 7 6 5 7 7 7 7 7 8 5 3 1 5 9 9 8 6 6 6 2 2 2 6 4 2 2 2 1 4 5 7 10 12 13 14 16 18 17 17 17
3 2 3 7 10 12 10 10 10 9 6 6 6 7 5 1 1 3 4 4 4 2 4 4 3 8 9 8 11 8 3 9 10 9 11 12 10 7 6 5 5 3 2 4 4 3 5 7 8 8 7 7 7 7 6 6 9 3 6 4 5 7 8 7 7 6 5 3 2 4 4 5 4 2 2 4 5 4 3 3 8 12 13 15 16 17 17 17
1 2 5 9 12 12 10 11 11 8 4 6 7 5 3 1 0 2 5 3 4 2 4 4 3 8 7 7 11 6 2 8 8 8 11 11 10 8 8 4 3 2 5 7 3 4 5 9 10 10 8 7 6 4 3 6 9 2 7 4 5 5 7 6 7 5 3 4 3 3 2 5 5 2 4 4 4 5 2 3 5 8 11 13 14 15 16 16
2 3 6 10 12 11 11 12 11 7 6 7 6 4 2 1 1 4 5 1 3 2 4 5 5 9 7 7 10 6 2 4 2 6 11 11 10 7 5 2 4 3 6 9 6 1 2 3 5 7 6 5 6 2 1 6 6 3 3 4 3 3 4 4 6 4 2 5 5 1 2 5 4 4 2 2 2 3 3 4 2 2 6 10 11 13 14 14
6 6 8 10 12 11 12 12 10 7 8 7 4 2 1 1 3 6 4 2 2 4 4 4 5 9 11 9 9 9 6 2 2 8 10 8 11 8 4 2 5 6 6 9 9 7 5 2 1 5 8 7 6 3 2 6 5 2 4 6 5 4 3 3 3 3 4 6 4 3 4 5 4 3 2 1 3 4 1 2 1 2 3 5 8 10 12 13
10 10 10 10 11 12 10 9 9 7 7 6 4 2 3 4 5 5 3 2 1 5 5 5 6 8 12 10 8 9 8 3 5 9 9 6 9 9 6 5 6 6 6 7 8 9 9 8 5 7 11 11 8 5 5 5 5 4 6 6 5 4 4 4 4 3 6 6 2 1 3 5 5 3 3 4 3 3 2 2 2 1 4 3 5 7 9 11
13 12 12 10 10 11 8 7 9 7 6 6 5 4 5 5 4 0 5 2 2 4 4 5 7 9 12 10 7 9 8 5 7 8 7 6 6 7 6 5 3 5 5 4 5 6 8 10 9 8 10 11 9 7 6 6 6 6 6 6 6 5 4 6 5 5 7 3 1 0 1 4 5 3 6 9 5 1 1 3 4 1 3 3 3 5 7 9
13 12 11 10 8 8 7 7 8 7 5 5 6 6 6 4 2 3 3 3 1 3 1 2 6 9 11 10 6 8 7 5 7 7 4 5 5 5 7 5 4 5 3 2 2 4 6 8 10 9 8 12 11 7 6 6 7 8 7 6 7 6 5 6 5 5 5 1 1 1 2 5 4 1 5 8 4 3 1 1 1 1 3 4 4 5 7 9
10 9 8 7 6 6 5 6 7 6 5 6 6 6 6 2 3 1 2 4 4 2 1 2 6 8 9 9 6 8 7 4 7 6 5 6 5 5 6 6 8 7 4 4 3 4 5 4 9 9 6 11 14 12 10 6 4 7 7 7 7 6 5 6 5 4 4 1 2 3 2 4 2 1 4 6 2 1 2 1 1 2 5 5 4 6 8 9
7 8 9 9 8 6 5 5 6 6 7 7 7 5 3 2 4 1 2 4 2 2 3 4 7 9 9 7 6 7 6 3 7 7 5 6 4 2 2 3 7 7 5 4 2 2 7 5 4 6 3 6 10 11 10 9 6 5 5 7 8 6 5 5 5 5 5 3 2 3 3 3 5 6 6 6 4 3 3 3 4 5 7 6 5 7 8 8
9 10 11 11 10 9 7 6 7 9 8 7 6 2 1 3 3 2 3 3 2 1 4 7 7 7 8 6 6 8 5 2 6 7 5 5 2 1 2 1 2 6 6 4 2 2 6 2 6 6 6 7 6 5 6 8 6 3 5 8 5 4 6 5 4 3 5 6 3 1 4 2 2 5 4 5 3 1 2 4 6 6 8 8 6 7 8 8
12 13 12 10 8 7 6 6 7 8 6 7 4 2 2 3 4 5 4 4 4 2 4 6 4 4 7 7 6 9 7 4 6 6 5 5 2 2 2 2 1 4 6 6 4 3 5 3 6 7 6 6 3 4 7 8 8 5 4 4 2 2 5 4 4 4 4 6 2 2 6 4 1 0 1 5 4 3 2 3 7 7 8 8 7 8 8 8
12 11 10 9 7 5 4 5 5 5 6 6 1 3 2 3 5 6 5 5 3 4 5 2 2 3 4 6 5 7 8 6 7 6 4 5 3 3 3 1 2 2 5 6 5 1 4 6 5 6 4 5 4 5 7 7 10 9 5 2 3 4 4 4 5 6 4 5 3 2 4 3 2 3 3 5 4 4 1 4 5 6 7 8 7 8 8 8
6 5 5 9 8 4 3 5 4 4 6 3 4 3 2 4 6 6 5 3 3 4 3 1 2 2 2 2 4 6 6 4 6 6 4 3 2 3 4 2 0 3 4 5 6 2 3 5 2 5 4 4 5 7 5 5 8 9 6 5 5 4 3 3 4 5 4 5 4 1 3 1 2 3 5 6 4 1 4 5 4 4 6 7 7 8 8 8
1 1 4 8 8 5 4 4 4 5 3 1 3 3 2 3 6 7 5 2 3 3 2 2 1 2 3 2 3 4 2 2 3 4 2 1 2 4 5 5 4 6 4 5 7 5 4 4 3 4 5 5 6 5 4 2 4 6 7 7 6 3 3 4 4 5 5 5 5 3 5 2 4 2 7 5 3 0 2 2 3 4 6 7 7 7 8 8
3 2 4 7 7 7 6 4 2 1 2 4 4 5 3 4 5 6 5 3 3 4 5 5 4 3 3 2 2 2 1 2 2 2 1 1 1 2 6 7 7 7 4 4 5 5 4 4 6 5 6 7 5 2 2 5 4 5 6 7 7 6 5 5 4 5 5 6 5 4 5 2 4 2 6 4 2 1 2 2 3 5 6 7 7 7 8 8
3 2 4 5 5 5 3 2 2 1 3 4 3 5 4 4 5 6 6 5 4 4 5 6 6 6 4 3 3 2 0 1 1 0 2 3 3 5 6 7 9 7 4 3 1 1 3 4 6 7 7 9 5 1 3 6 6 8 8 7 7 6 6 7 5 3 4 5 4 3 4 3 2 2 1 2 2 0 2 4 4 5 7 8 8 8 8 8
0 3 3 4 4 2 2 2 5 3 4 5 4 4 5 6 7 7 8 7 5 5 5 5 6 6 6 5 4 2 3 2 2 2 3 4 5 6 5 7 9 7 5 4 3 2 1 4 6 7 7 8 6 2 3 4 5 8 7 6 7 6 6 7 5 3 4 4 4 4 4 3 1 0 1 1 1 2 3 6 6 6 8 9 9 9 9 9
4 5 4 6 3 1 3 1 4 4 5 5 5 6 6 8 10 9 9 10 8 5 4 6 7 6 5 5 4 4 4 2 1 3 2 2 4 5 5 7 8 8 7 6 4 1 2 3 4 6 7 8 7 5 4 4 5 7 5 5 6 7 8 7 4 4 5 4 5 6 3 1 1 2 2 1 2 4 5 6 7 6 7 8 9 10 10 10
3 4 4 8 7 4 2 3 3 4 6 6 6 6 4 6 9 9 8 10 10 7 5 5 4 5 5 3 4 6 5 4 2 1 0 1 4 4 6 6 4 6 9 8 7 4 3 3 3 5 7 7 6 4 3 3 4 6 5 5 6 7 9 7 3 5 5 3 5 7 4 3 4 5 3 1 4 4 4 6 7 6 6 8 8 9 11 11
1 1 3 5 8 9 8 5 4 2 3 3 4 5 4 5 6 8 8 8 10 9 8 6 3 3 4 3 2 5 6 5 4 2 1 3 3 2 6 4 0 4 8 8 7 4 4 4 4 4 6 7 7 6 5 5 6 9 9 9 8 7 7 6 4 4 4 2 3 5 5 7 10 9 2 4 6 5 2 5 7 6 6 7 7 8 11 11
1 2 2 2 4 6 7 6 5 3 2 1 1 3 4 4 3 5 7 7 7 7 6 7 7 4 5 6 3 2 5 3 1 2 3 4 5 5 5 1 4 3 8 8 7 4 4 4 3 4 7 8 9 10 8 7 8 11 11 11 10 7 7 9 6 2 1 5 4 2 4 7 10 8 5 8 9 8 5 4 6 6 7 8 7 8 10 11
2 2 4 3 2 2 4 5 5 5 4 3 2 1 3 4 4 4 6 5 5 6 4 4 8 8 7 7 4 3 5 2 1 2 4 5 7 7 5 2 5 1 6 7 7 5 5 5 2 4 10 10 9 8 7 8 9 10 12 12 10 9 8 10 9 4 3 7 5 1 6 10 8 7 8 9 9 9 7 6 4 5 6 7 8 9 9 10
5 5 5 5 4 4 4 4 3 4 6 4 3 3 3 5 6 5 4 3 3 6 6 3 6 7 6 6 5 3 4 3 1 3 4 5 7 6 6 3 2 1 7 7 5 4 4 4 3 7 11 11 9 6 4 7 9 10 12 13 10 9 10 10 10 7 7 11 7 4 9 10 4 5 8 10 10 8 7 6 5 6 6 7 7 8 9 9
5 5 4 5 6 6 5 3 1 2 4 2 2 3 4 4 5 5 5 6 3 4 6 5 5 6 5 5 6 3 3 4 4 3 4 6 5 3 4 3 2 4 9 7 3 3 3 3 4 7 9 10 8 6 5 6 7 10 12 13 11 11 11 10 9 8 8 11 8 6 9 6 4 7 9 10 9 7 6 6 5 7 7 7 8 8 8 8
8 7 4 3 4 4 3 3 1 0 2 2 2 3 3 4 5 4 3 6 6 5 6 6 7 6 4 4 4 2 3 5 7 7 8 8 7 6 5 5 7 9 9 6 4 4 5 5 5 6 8 9 7 7 8 8 9 11 13 13 13 12 10 9 8 7 7 8 7 5 5 4 6 10 11 11 11 9 7 6 3 5 6 7 8 7 8 8
9 7 5 2 1 2 2 1 0 1 2 4 4 3 3 4 4 3 1 2 3 5 6 7 7 7 5 5 4 5 7 9 11 12 12 12 13 13 12 12 13 11 8 7 6 5 5 5 5 5 7 8 7 7 7 8 10 11 8 6 6 8 10 11 7 1 3 6 5 3 2 4 7 11 11 11 11 11 9 6 4 3 4 6 6 6 7 8
Wind_Direction
332 312 300 292 285 285 285 285 286 286 286 285 282 281 279 278 278 278 278 279 281 282 285 290 292 290 288 283 277 272 268 264 261 260 259 257 251 245 246 246 242 238 232 232 238 225 231 248 272 303 306 292 303 330 333 341 323 300 283 12 53 37 35 8 358 14 352 12 58 115 170 176 114 130 146 164 163 152 140 121 106 108 98 96 111 132 141 145
357 340 318 298 290 288 285 286 287 287 287 285 283 282 280 279 280 281 281 282 284 286 289 294 296 295 291 281 275 270 264 261 263 265 258 246 241 236 235 233 223 217 213 215 222 213 222 246 262 292 303 294 329 340 335 349 329 325 327 26 59 26 26 13 356 6 353 8 35 111 156 180 67 111 166 195 168 172 175 152 148 138 128 122 130 140 144 148
6 356 334 310 299 292 291 293 291 291 289 286 286 283 281 282 281 283 282 285 288 289 292 297 298 295 287 276 260 258 251 257 270 257 214 213 246 237 231 223 213 211 203 201 207 210 232 260 258 289 300 297 357 344 338 357 340 352 338 23 59 16 15 37 2 4 14 5 7 119 144 180 108 104 191 236 200 197 217 182 169 161 148 142 144 150 152 154
1 354 342 327 312 302 301 299 297 297 294 291 289 285 285 284 284 284 284 288 290 291 297 298 296 289 279 252 221 209 202 212 161 141 145 116 303 260 236 213 204 202 188 193 203 211 229 245 256 291 293 295 358 336 357 13 346 334 342 17 36 356 17 48 16 15 58 15 9 124 158 183 163 197 217 244 250 204 193 187 189 172 157 155 156 159 161 160
343 341 338 333 325 320 313 306 306 303 301 298 294 291 288 285 286 284 286 291 291 294 298 294 287 274 245 180 186 178 227 203 131 137 151 51 342 302 240 205 193 188 184 194 198 205 214 230 255 269 279 305 349 344 31 20 334 312 27 25 12 350 14 47 35 44 104 78 99 156 168 122 173 220 235 244 264 360 82 116 181 179 169 164 165 165 166 167
319 320 320 323 324 323 319 313 311 307 307 303 299 297 291 289 287 283 289 289 293 297 291 285 269 236 179 172 188 198 266 60 108 178 242 18 1 4 221 194 184 181 184 190 188 197 205 222 245 262 283 305 353 357 20 13 328 317 49 27 7 2 10 52 60 85 115 63 98 141 154 69 236 231 238 251 264 294 52 91 170 186 181 172 169 171 172 172
302 302 302 305 308 313 314 312 310 307 308 306 306 303 296 293 286 285 289 288 298 295 280 266 223 189 170 174 179 208 254 50 93 218 62 13 15 42 177 177 179 178 178 184 185 194 201 218 237 276 288 291 1 354 354 354 322 322 16 16 8 15 23 56 74 108 107 49 83 129 218 229 265 271 260 257 262 257 239 238 220 186 177 174 174 177 179 177
290 291 290 289 292 298 302 303 303 304 306 309 310 308 304 296 288 286 283 294 298 278 261 218 186 171 173 167 176 213 192 80 123 180 54 4 26 55 155 168 176 174 176 185 187 192 198 217 234 268 277 344 351 340 340 326 102 1 356 1 2 34 46 64 89 111 109 82 119 191 231 239 271 286 280 266 264 230 223 221 179 171 170 176 179 181 185 182
282 284 283 280 280 283 289 294 295 299 304 309 314 315 310 298 289 278 281 301 277 247 203 184 174 172 177 165 227 227 143 110 139 124 35 19 38 63 138 166 172 169 176 185 188 193 199 218 233 272 297 342 325 325 334 317 38 10 347 350 4 52 64 75 101 115 120 111 166 234 250 235 251 276 263 246 249 183 190 185 159 162 169 177 181 185 187 185
278 278 278 277 274 274 279 283 288 294 299 306 316 318 310 298 282 268 284 285 230 196 175 177 168 176 174 172 233 222 122 130 127 93 22 41 53 83 135 169 169 167 178 184 188 193 202 227 216 282 289 295 304 316 330 330 353 352 338 348 23 58 81 89 110 130 142 116 238 282 287 251 212 269 239 145 169 175 174 169 161 168 174 178 181 185 188 189
278 275 275 275 271 270 271 276 282 287 294 304 315 316 309 294 265 243 261 216 189 177 174 174 170 179 165 191 249 239 126 145 124 72 21 72 92 105 143 170 167 171 182 183 185 187 194 207 196 273 274 286 298 292 325 347 339 338 328 315 96 101 103 111 131 154 195 181 304 291 290 262 207 245 271 101 148 171 173 168 169 179 178 180 182 183 188 191
285 276 273 271 268 266 265 270 276 282 290 297 309 311 303 283 235 196 189 194 184 176 174 172 174 178 171 213 261 108 141 154 142 87 25 90 128 130 148 169 172 180 185 184 188 186 182 142 229 275 310 324 294 286 352 344 324 320 305 291 185 181 158 103 97 174 231 259 346 293 282 239 205 214 234 152 177 175 181 178 178 186 182 184 183 183 189 190
299 285 276 270 265 261 260 265 270 278 283 290 305 303 294 259 202 180 183 196 185 175 173 167 167 185 199 219 223 165 159 161 162 152 31 95 148 144 149 163 173 186 186 190 199 189 184 160 305 296 316 303 292 323 324 308 301 295 282 297 270 209 155 99 141 193 234 191 19 292 296 160 163 174 164 159 187 186 191 193 187 184 184 189 185 186 192 191
309 296 284 273 263 258 257 260 265 274 277 284 296 288 280 197 181 166 177 191 177 167 165 169 158 194 222 219 196 191 175 171 178 167 46 86 160 159 153 159 168 179 181 183 198 193 192 199 282 281 277 276 299 314 293 267 260 285 284 263 262 256 110 104 134 203 222 153 169 269 296 75 112 140 171 172 191 200 202 202 192 186 187 190 188 191 194 194
316 303 291 277 266 257 255 256 261 268 270 275 279 276 235 183 174 157 174 180 167 161 153 171 114 150 229 207 193 207 182 175 183 175 81 98 158 168 159 160 162 168 171 166 178 187 193 209 252 261 247 255 280 279 274 258 232 268 282 239 216 316 89 111 122 242 264 133 191 240 290 341 101 125 170 178 190 208 217 214 197 192 193 194 191 194 197 197
322 307 295 281 267 257 253 253 255 262 262 256 254 251 200 178 172 168 172 161 161 159 146 174 120 150 242 184 170 204 181 175 189 189 170 129 161 175 157 154 154 156 159 158 162 170 185 207 242 267 261 252 256 264 276 267 228 204 260 285 346 323 333 109 133 179 261 247 209 228 277 312 82 118 153 177 189 207 218 224 211 198 200 202 198 197 200 200
327 311 297 282 268 258 252 249 250 254 250 232 225 216 186 174 172 170 167 162 158 151 162 186 134 206 256 182 174 185 164 179 190 186 172 144 154 162 148 143 151 152 149 152 153 158 182 204 225 239 238 245 256 276 269 252 236 184 233 289 307 308 305 298 132 139 218 249 240 233 246 277 277 132 147 175 189 210 220 227 218 207 207 206 207 206 204 204
331 315 298 282 269 258 250 245 242 244 235 210 191 174 175 172 172 172 174 170 146 151 192 192 175 213 214 179 171 149 150 180 179 174 171 150 143 152 147 144 150 150 152 158 164 175 191 199 223 238 225 230 237 245 252 294 337 333 324 300 292 290 281 295 16 104 233 263 265 257 248 265 270 215 179 181 191 214 226 233 227 219 217 210 210 212 211 212
334 317 296 280 267 255 248 237 236 236 213 194 177 157 147 144 161 179 191 185 175 189 194 174 188 275 110 146 139 136 157 169 164 166 169 158 147 149 150 152 155 162 169 174 179 186 201 203 218 240 231 226 224 238 275 351 351 325 312 297 301 298 279 322 1 32 324 288 270 267 268 273 276 252 205 188 196 217 229 235 232 227 225 217 214 215 217 220
337 318 291 275 262 251 240 224 229 222 196 186 161 147 144 157 172 171 192 206 218 249 357 162 203 298 79 131 122 139 161 162 160 163 169 167 159 153 152 156 167 187 193 191 180 178 207 224 220 230 235 237 232 250 302 332 325 309 298 283 288 288 283 358 16 44 8 291 282 285 287 286 285 281 237 192 199 217 226 229 228 226 225 218 215 215 218 222
339 318 287 271 258 245 225 211 221 208 188 179 162 159 164 247 211 124 176 210 226 238 253 233 226 249 193 144 131 133 155 166 159 162 172 168 170 172 163 171 187 194 196 207 175 155 202 233 232 236 244 251 253 284 295 293 287 287 286 281 279 273 281 30 57 45 97 263 295 309 298 289 278 279 249 192 202 216 220 225 225 223 224 220 217 217 218 221
342 318 280 262 247 227 204 203 213 197 186 179 168 172 228 302 116 68 50 217 198 223 236 232 228 238 218 179 169 150 164 174 159 164 175 169 187 196 169 187 211 189 172 198 206 185 212 233 236 233 227 202 244 277 275 277 279 276 272 267 266 265 271 116 106 104 147 247 302 313 302 293 282 276 238 197 208 219 219 223 227 227 224 221 220 219 218 216
347 313 271 249 198 180 182 193 201 191 187 178 169 172 172 156 127 52 348 274 174 188 218 217 221 227 208 197 196 183 183 182 167 169 179 178 192 208 185 197 218 190 173 199 218 224 220 233 238 215 193 221 237 245 255 264 262 257 256 253 254 263 272 244 123 152 187 246 292 304 291 285 293 281 230 201 214 223 220 223 227 230 228 224 223 222 219 215
349 300 251 193 161 160 169 177 177 174 172 171 170 170 160 147 118 35 332 284 162 145 186 204 215 214 197 196 198 195 193 189 179 172 180 187 186 192 206 210 218 214 205 210 226 244 245 85 73 179 196 221 231 215 230 248 246 237 238 250 262 273 285 300 325 250 231 230 260 287 277 265 322 288 227 182 204 217 216 222 225 227 228 227 228 226 222 218
337 279 192 158 153 155 162 157 148 146 147 158 168 168 159 147 156 360 289 248 161 130 173 189 201 204 193 193 185 190 198 190 186 170 177 194 191 177 196 209 228 228 204 207 230 254 251 125 119 170 185 199 220 218 219 234 248 234 223 239 269 285 290 295 297 284 263 225 177 284 292 312 116 262 223 157 194 215 208 214 223 223 223 223 227 227 221 218
314 260 163 153 153 155 153 144 145 140 136 153 167 166 157 135 199 234 273 232 156 125 161 167 177 177 181 189 173 181 203 179 175 169 175 194 199 202 205 174 219 257 194 204 240 255 240 153 173 213 208 197 218 231 216 224 251 242 168 199 283 284 281 282 281 275 283 312 112 254 298 319 303 322 350 243 232 231 207 214 223 216 216 219 223 225 220 216
296 223 155 151 155 156 150 147 149 139 137 167 171 164 159 140 227 248 259 208 144 119 157 146 157 160 162 177 174 188 186 141 158 178 184 194 190 211 234 176 194 235 174 216 238 216 199 187 195 215 224 215 219 224 190 202 246 247 71 34 300 278 273 280 273 262 289 320 186 206 268 299 304 339 274 257 280 278 218 242 243 215 210 217 220 223 221 217
320 174 144 149 157 154 154 156 148 143 164 171 164 161 172 199 191 268 258 187 117 119 147 120 153 163 152 167 182 206 70 131 167 171 176 193 184 204 236 221 232 194 176 225 228 120 175 195 195 205 222 222 221 224 162 206 248 332 45 340 294 284 283 283 269 263 300 294 247 192 233 278 299 308 209 205 293 302 67 31 286 223 209 216 217 220 220 219
62 122 131 147 156 151 155 157 149 158 174 164 162 151 138 190 231 252 253 144 115 168 136 116 152 165 160 168 187 207 147 155 215 139 161 190 188 207 252 242 265 243 199 237 258 84 159 189 202 218 228 225 228 246 183 228 255 15 19 279 248 250 269 265 263 276 275 275 286 294 261 278 303 320 282 170 295 294 100 75 337 207 204 217 214 217 217 215
82 104 120 139 154 153 155 160 158 163 170 170 169 139 141 209 241 234 207 110 142 153 131 140 154 164 170 174 186 198 187 141 83 143 163 187 190 207 268 257 251 253 220 231 253 264 246 188 199 241 241 253 273 284 233 244 263 320 268 245 217 209 228 239 256 289 265 263 294 305 280 285 287 299 313 13 335 317 37 99 139 132 161 206 209 214 214 209
87 97 109 124 145 149 148 164 174 168 173 186 175 166 218 218 244 243 147 100 159 139 156 179 158 166 182 189 183 184 198 172 136 165 172 178 191 203 228 223 221 235 229 220 228 238 231 214 210 225 230 242 262 246 215 226 233 245 253 248 237 213 210 232 215 225 264 268 290 297 280 276 273 296 328 330 330 294 299 333 312 156 139 164 200 204 207 206
85 91 98 105 130 143 146 172 184 176 181 194 188 208 241 220 222 163 110 165 203 146 169 176 164 178 188 201 190 171 193 188 165 186 190 187 196 199 215 225 220 228 225 206 201 209 219 222 215 209 208 218 237 232 199 196 207 228 244 243 249 239 228 251 241 236 263 274 91 284 284 267 271 308 308 305 317 322 302 329 321 257 140 136 169 181 186 197
80 85 91 94 110 134 152 173 177 177 179 191 198 220 253 232 170 68 113 173 111 108 122 143 170 186 187 198 189 170 189 181 169 193 204 204 216 204 209 232 266 273 262 220 235 224 214 203 198 201 194 200 220 234 213 198 194 211 232 236 243 258 265 267 272 270 270 301 96 177 225 257 260 273 289 297 343 73 93 314 318 204 156 137 147 168 169 179
76 79 86 91 100 123 152 168 178 187 179 184 205 225 247 215 118 83 124 96 71 104 138 150 171 182 192 201 177 172 198 183 172 192 193 205 230 216 203 207 223 251 276 258 264 254 242 209 186 198 183 180 203 230 253 269 232 213 232 248 248 262 278 280 287 287 282 262 144 166 224 277 308 335 271 267 252 166 209 205 133 155 162 151 151 167 165 169
77 84 88 90 92 101 127 155 173 179 170 189 220 235 234 131 113 153 75 68 68 131 134 167 180 178 188 199 178 188 226 194 175 199 209 212 228 223 225 197 198 223 252 246 232 220 256 264 175 181 159 170 203 225 248 273 265 223 222 242 252 259 262 277 290 296 305 289 214 192 249 306 336 315 280 254 247 271 257 186 154 159 164 167 168 166 168 169
91 92 87 85 85 88 105 127 150 158 167 209 233 213 120 63 50 19 30 11 321 54 140 168 182 188 180 178 181 188 219 216 180 197 210 214 234 13 319 352 195 227 237 245 268 220 243 239 136 165 192 199 227 234 225 247 254 213 218 235 249 266 263 272 269 261 280 275 259 257 266 268 295 294 299 287 285 360 273 188 151 157 165 174 183 171 172 174
90 87 78 76 78 81 101 127 149 162 195 247 254 84 61 42 24 8 3 331 313 300 215 179 174 217 184 172 179 173 180 191 189 203 200 190 186 30 336 347 357 259 257 275 284 246 266 264 165 192 203 174 215 253 224 238 247 230 233 234 180 231 263 276 270 249 248 259 257 268 278 292 287 235 63 281 263 114 254 212 146 158 171 178 187 172 173 177
88 84 70 57 60 75 123 153 156 182 232 250 132 80 17 36 28 355 340 322 297 252 250 197 135 259 205 175 161 151 172 184 176 198 203 174 164 23 354 5 79 307 297 285 267 213 282 270 197 196 198 137 161 227 217 214 229 242 283 307 226 234 231 210 249 263 251 263 265 226 263 292 307 319 341 303 324 74 225 224 160 172 181 180 185 172 171 175
94 97 61 34 37 64 151 170 181 230 241 229 113 101 12 37 33 3 346 310 285 265 272 47 98 242 218 162 130 136 181 203 172 193 217 186 163 41 14 2 10 330 321 263 251 259 267 267 208 169 182 168 184 218 223 183 198 230 263 259 234 252 259 215 237 265 261 268 271 257 275 230 160 281 288 298 330 74 192 202 179 184 182 181 185 178 173 172
210 170 65 22 22 67 114 148 192 236 228 103 75 79 45 31 37 29 22 329 310 331 3 46 111 154 119 112 114 122 182 221 179 197 206 160 148 79 43 9 341 334 321 239 241 253 230 245 250 181 180 210 212 216 255 244 191 211 220 222 213 209 255 248 232 253 274 281 271 271 278 250 115 254 275 290 322 302 166 164 169 181 184 185 185 178 172 175
235 174 68 11 18 85 111 128 162 228 111 95 74 63 49 358 16 40 39 24 19 24 30 37 52 78 91 106 99 92 177 175 162 200 141 120 201 72 48 12 344 329 302 227 224 238 233 240 254 233 209 225 223 161 277 284 284 257 233 226 223 210 225 247 236 237 258 271 272 278 280 281 112 199 267 299 332 27 119 156 179 181 186 189 183 174 168 173
231 143 67 8 37 100 142 137 102 70 75 94 73 47 36 351 3 37 33 24 38 42 37 40 40 44 45 36 45 46 32 125 107 300 93 74 47 47 36 4 344 329 300 271 252 266 286 277 262 253 244 253 269 323 249 262 272 267 259 253 249 230 224 243 248 233 242 260 276 283 283 309 66 135 264 317 318 332 153 186 190 183 188 188 180 174 173 175
104 94 60 12 53 105 241 146 115 97 74 89 87 56 48 31 29 41 33 24 30 33 42 50 36 38 42 22 18 27 10 20 45 47 82 91 71 54 22 352 346 344 334 324 357 63 266 264 260 260 256 258 259 207 200 239 241 243 244 247 259 257 245 256 276 270 239 236 244 247 245 259 317 113 211 227 233 219 198 204 203 189 186 185 177 178 185 184
89 91 44 16 54 208 272 101 112 104 91 97 97 81 71 50 34 35 38 34 30 25 49 61 40 37 44 24 32 45 9 349 82 63 59 84 79 60 19 353 345 2 20 1 344 347 253 248 255 266 257 238 224 199 184 198 221 239 239 233 254 263 257 262 275 257 245 242 258 267 273 282 273 255 250 263 258 236 206 205 213 200 185 183 178 182 191 190
123 115 60 35 54 85 59 36 51 99 108 104 85 68 75 74 44 33 42 44 39 32 46 62 35 28 39 28 52 54 22 2 33 70 71 42 83 78 18 355 340 10 21 358 327 300 275 285 280 274 265 249 243 242 247 248 245 251 248 235 245 251 247 250 253 245 256 331 306 278 292 326 282 241 222 297 297 269 221 203 211 206 189 182 177 180 190 195
224 150 101 55 58 73 78 52 21 77 109 105 86 47 42 96 71 35 34 43 44 40 44 54 29 7 30 14 35 59 35 17 23 43 19 8 51 47 355 346 313 6 0 344 329 297 262 275 271 268 275 276 286 300 309 313 282 255 238 226 230 242 242 238 250 256 246 263 268 250 258 284 279 263 252 19 344 330 295 221 209 202 192 182 176 178 186 196
322 6 27 63 76 80 89 70 38 53 61 13 64 26 29 87 99 45 41 40 35 30 42 55 41 29 34 14 349 39 26 12 22 20 358 350 349 331 322 230 166 351 340 338 346 332 276 266 240 251 272 276 285 293 295 295 277 264 254 236 225 230 236 234 243 286 266 246 258 247 224 245 269 289 3 20 351 348 338 261 220 203 198 182 177 180 184 194
74 69 38 43 62 60 74 57 33 55 77 62 62 41 45 70 76 58 51 45 35 19 9 61 51 38 34 14 338 342 1 328 188 29 359 346 340 326 314 194 159 11 335 338 3 358 288 272 268 290 289 284 285 289 287 278 270 267 263 252 232 222 232 245 253 251 234 256 277 335 244 249 272 312 3 11 346 345 337 294 246 210 198 176 174 183 184 192
68 85 69 60 61 49 48 36 19 65 74 59 56 50 42 61 72 65 32 10 60 35 6 33 52 28 23 13 346 342 356 325 285 50 17 342 331 318 310 291 176 39 340 335 359 7 306 287 316 311 297 287 278 274 275 271 266 260 255 249 240 233 235 247 260 255 247 260 260 218 244 261 300 349 351 349 341 340 327 295 253 215 200 178 180 188 187 192
72 77 76 85 83 64 44 30 13 100 80 49 65 58 37 46 62 65 33 6 26 43 14 18 25 1 354 358 338 346 32 351 315 330 340 328 323 321 318 316 316 332 329 326 340 349 319 300 313 308 290 276 266 253 248 257 263 263 256 243 235 239 240 244 254 251 247 259 257 232 247 269 23 16 344 339 342 341 327 302 249 217 204 190 192 195 189 193
85 88 88 96 77 32 12 38 9 196 90 58 62 64 46 48 40 29 42 27 18 26 18 3 353 338 314 305 318 349 26 336 298 294 302 297 294 302 301 302 315 320 317 313 318 316 301 290 293 288 276 269 259 247 254 267 267 261 256 247 237 233 237 243 242 239 250 265 265 260 270 296 360 355 338 339 350 351 345 332 268 224 214 205 207 205 191 191
72 83 77 74 78 11 350 84 343 280 73 50 50 61 48 54 40 339 319 67 35 22 13 350 337 327 298 290 334 359 339 314 296 291 288 279 275 277 273 273 285 290 291 297 303 296 290 293 287 276 273 269 257 259 277 280 267 254 255 273 264 248 254 257 241 217 343 315 282 271 326 340 346 343 335 338 349 351 349 340 314 285 256 228 225 222 197 189
Height
1525 1524 1524 1524 1523 1523 1522 1522 1522 1522 1521 1521 1521 1521 1521 1520 1520 1520 1520 1519 1519 1519 1519 1519 1518 1518 1517 1517 1517 1517 1517 1517 1517 1517 1517 1517 1517 1517 1518 1519 1521 1521 1522 1524 1524 1525 1525 1526 1525 1525 1524 1523 1522 1521 1520 1519 1517 1515 1513 1514 1520 1522 1522 1522 1520 1519 1519 1518 1517 1519 1520 1520 1522 1523 1524 1525 1525 1525 1526 1527 1528 1529 1529 1530 1531 1532 1533 1534
1524 1524 1523 1523 1523 1522 1522 1521 1521 1521 1521 1521 1520 1520 1520 1520 1520 1519 1519 1519 1519 1518 1518 1518 1517 1517 1517 1516 1516 1516 1516 1516 1516 1516 1516 1516 1516 1516 1517 1518 1520 1521 1522 1523 1524 1525 1526 1526 1526 1525 1524 1522 1521 1520 1519 1519 1517 1515 1513 1515 1522 1522 1520 1519 1518 1518 1518 1518 1518 1519 1520 1521 1522 1522 1523 1524 1524 1524 1525 1527 1528 1529 1529 1530 1532 1533 1534 1535
1524 1524 1523 1523 1522 1522 1521 1521 1521 1521 1520 1520 1520 1520 1519 1519 1519 1519 1518 1518 1518 1518 1517 1517 1516 1516 1516 1516 1516 1516 1516 1516 1516 1516 1516 1516 1516 1516 1517 1518 1519 1520 1522 1523 1525 1526 1526 1526 1526 1525 1524 1521 1520 1519 1518 1517 1516 1515 1515 1518 1521 1519 1517 1517 1518 1518 1519 1519 1518 1519 1521 1521 1522 1522 1523 1523 1522 1523 1524 1525 1526 1528 1529 1530 1532 1533 1534 1535
1524 1523 1523 1522 1522 1521 1521 1521 1520 1520 1520 1519 1519 1519 1519 1518 1518 1518 1518 1517 1517 1517 1516 1516 1516 1515 1515 1515 1516 1515 1515 1515 1515 1516 1516 1516 1516 1515 1516 1517 1519 1520 1522 1523 1524 1525 1526 1526 1526 1525 1524 1519 1518 1518 1516 1517 1517 1515 1516 1519 1519 1516 1516 1517 1518 1519 1520 1520 1519 1520 1521 1521 1522 1523 1522 1522 1524 1523 1521 1523 1525 1527 1529 1530 1531 1532 1534 1535
1524 1523 1523 1522 1521 1521 1520 1520 1520 1519 1519 1519 1519 1518 1518 1518 1518 1517 1517 1517 1516 1516 1516 1515 1515 1515 1515 1515 1516 1515 1515 1516 1515 1516 1516 1516 1516 1515 1516 1517 1518 1520 1521 1523 1523 1525 1525 1526 1526 1525 1523 1518 1516 1516 1516 1517 1518 1516 1515 1516 1516 1515 1517 1517 1518 1520 1520 1520 1520 1520 1521 1521 1521 1522 1522 1521 1523 1522 1520 1523 1525 1526 1528 1529 1531 1532 1533 1535
1523 1523 1522 1521 1521 1520 1520 1519 1519 1519 1518 1518 1518 1518 1517 1517 1517 1517 1516 1516 1516 1516 1515 1515 1515 1515 1515 1515 1515 1515 1516 1516 1515 1516 1516 1516 1515 1515 1516 1517 1518 1519 1521 1522 1524 1525 1525 1526 1525 1523 1521 1517 1517 1517 1517 1518 1518 1517 1515 1514 1515 1515 1516 1517 1519 1520 1520 1520 1520 1520 1521 1521 1521 1521 1521 1521 1521 1521 1521 1523 1524 1526 1528 1529 1530 1532 1533 1534
1522 1522 1521 1521 1520 1520 1519 1519 1518 1518 1518 1517 1517 1517 1517 1516 1516 1516 1516 1516 1515 1515 1514 1514 1515 1515 1515 1515 1516 1516 1515 1515 1515 1516 1516 1516 1516 1515 1515 1517 1518 1519 1521 1523 1524 1525 1526 1526 1524 1522 1520 1518 1518 1518 1517 1517 1517 1518 1516 1513 1515 1516 1516 1517 1519 1520 1521 1520 1520 1521 1521 1521 1521 1521 1521 1521 1520 1520 1522 1522 1524 1525 1527 1529 1530 1531 1533 1534
1521 1521 1520 1520 1520 1519 1519 1518 1518 1517 1517 1517 1516 1516 1516 1516 1516 1516 1515 1515 1515 1514 1514 1514 1515 1515 1516 1516 1516 1515 1515 1515 1516 1516 1516 1516 1516 1516 1516 1517 1518 1519 1521 1523 1525 1525 1526 1525 1524 1523 1520 1519 1519 1518 1517 1516 1516 1517 1517 1514 1515 1516 1517 1519 1520 1520 1521 1521 1521 1521 1521 1520 1521 1521 1520 1519 1519 1519 1521 1522 1523 1524 1526 1528 1530 1531 1533 1534
1520 1520 1519 1519 1519 1518 1518 1517 1517 1516 1516 1516 1516 1516 1515 1515 1515 1515 1515 1515 1514 1514 1514 1514 1515 1515 1516 1516 1516 1515 1514 1516 1516 1516 1516 1516 1516 1516 1517 1517 1518 1520 1522 1524 1525 1526 1526 1524 1524 1523 1521 1520 1520 1519 1516 1517 1518 1517 1517 1515 1515 1516 1518 1519 1520 1520 1521 1521 1521 1520 1519 1520 1521 1521 1519 1517 1518 1519 1520 1521 1522 1524 1526 1527 1529 1531 1532 1534
1519 1518 1518 1518 1517 1517 1517 1516 1516 1515 1515 1515 1515 1515 1515 1514 1514 1514 1514 1514 1514 1514 1514 1515 1515 1516 1516 1516 1515 1514 1514 1516 1516 1516 1516 1516 1516 1517 1518 1518 1519 1521 1523 1524 1525 1526 1526 1525 1525 1524 1523 1521 1520 1519 1517 1518 1520 1518 1517 1516 1516 1517 1518 1519 1520 1520 1521 1520 1521 1520 1519 1518 1520 1521 1518 1516 1517 1519 1519 1521 1522 1523 1525 1527 1529 1531 1532 1534
1517 1517 1517 1516 1516 1516 1515 1515 1515 1514 1514 1514 1514 1514 1514 1514 1514 1514 1514 1514 1514 1514 1514 1515 1515 1516 1516 1516 1514 1513 1515 1516 1516 1516 1516 1516 1517 1518 1519 1519 1520 1522 1523 1524 1525 1526 1526 1526 1525 1525 1523 1521 1520 1518 1517 1519 1519 1518 1517 1516 1516 1517 1518 1518 1519 1520 1520 1520 1520 1519 1518 1517 1519 1520 1517 1515 1517 1518 1519 1520 1522 1523 1525 1527 1529 1530 1532 1533
1516 1516 1515 1515 1515 1515 1514 1514 1514 1514 1513 1513 1514 1513 1513 1513 1513 1514 1514 1514 1514 1514 1515 1515 1516 1516 1516 1516 1515 1514 1515 1516 1516 1517 1517 1517 1517 1518 1519 1520 1521 1523 1524 1525 1526 1526 1526 1526 1526 1525 1523 1522 1520 1518 1519 1519 1518 1517 1516 1517 1516 1516 1518 1518 1518 1519 1519 1519 1519 1519 1521 1520 1518 1517 1514 1515 1517 1517 1518 1519 1521 1523 1525 1526 1528 1530 1531 1533
1515 1514 1514 1514 1513 1513 1513 1513 1513 1513 1513 1513 1513 1513 1513 1513 1513 1514 1514 1514 1514 1514 1515 1515 1516 1516 1516 1516 1515 1515 1516 1516 1516 1517 1517 1517 1518 1518 1519 1519 1520 1522 1524 1525 1526 1525 1526 1526 1526 1526 1525 1523 1520 1520 1521 1518 1518 1517 1513 1516 1517 1516 1520 1519 1517 1519 1518 1519 1519 1520 1525 1520 1514 1514 1513 1515 1516 1516 1518 1518 1520 1522 1524 1526 1527 1529 1530 1532
1514 1513 1513 1512 1512 1512 1512 1512 1512 1512 1512 1512 1512 1512 1512 1512 1513 1513 1513 1514 1514 1515 1515 1516 1516 1516 1516 1515 1515 1516 1516 1516 1517 1517 1517 1518 1518 1518 1519 1519 1520 1521 1522 1524 1525 1525 1525 1526 1526 1526 1525 1524 1522 1521 1520 1516 1516 1516 1514 1516 1516 1519 1522 1518 1516 1518 1519 1520 1518 1522 1526 1517 1511 1512 1512 1515 1515 1516 1516 1516 1518 1520 1522 1524 1526 1528 1529 1530
1513 1512 1512 1511 1511 1511 1511 1511 1511 1511 1511 1512 1512 1512 1512 1512 1513 1513 1514 1514 1514 1515 1515 1515 1516 1516 1516 1515 1515 1516 1516 1517 1517 1518 1518 1518 1519 1519 1519 1520 1520 1521 1522 1523 1524 1525 1526 1526 1527 1525 1524 1524 1523 1522 1519 1515 1513 1514 1520 1520 1515 1519 1522 1518 1517 1517 1519 1520 1517 1523 1525 1515 1509 1510 1511 1513 1515 1515 1515 1515 1517 1519 1521 1523 1525 1526 1528 1529
1512 1511 1511 1510 1510 1510 1510 1510 1510 1510 1511 1511 1511 1511 1512 1512 1512 1513 1514 1514 1515 1515 1515 1516 1516 1517 1515 1514 1515 1516 1516 1517 1517 1518 1518 1519 1520 1520 1520 1520 1521 1521 1522 1524 1524 1525 1526 1526 1526 1525 1524 1523 1521 1521 1521 1520 1517 1514 1521 1523 1519 1520 1521 1519 1518 1516 1517 1519 1518 1521 1524 1516 1509 1509 1511 1512 1514 1514 1513 1514 1515 1518 1520 1521 1523 1525 1526 1528
1511 1510 1509 1509 1509 1508 1508 1509 1509 1509 1510 1510 1511 1511 1511 1512 1512 1513 1514 1514 1515 1515 1515 1516 1516 1516 1515 1514 1515 1516 1516 1517 1517 1518 1518 1519 1520 1520 1520 1521 1522 1523 1523 1525 1525 1526 1527 1526 1527 1525 1523 1521 1519 1521 1528 1529 1523 1516 1518 1521 1520 1522 1522 1521 1520 1517 1515 1518 1518 1518 1520 1517 1509 1507 1510 1511 1513 1513 1512 1512 1513 1516 1518 1519 1521 1522 1524 1526
1510 1509 1508 1508 1507 1507 1508 1508 1508 1509 1509 1510 1510 1511 1511 1512 1512 1513 1513 1514 1515 1515 1515 1515 1516 1517 1516 1513 1514 1515 1516 1516 1517 1518 1519 1519 1520 1521 1522 1522 1523 1524 1524 1525 1525 1526 1526 1525 1524 1523 1521 1522 1521 1524 1530 1530 1525 1523 1524 1524 1522 1522 1521 1521 1521 1517 1515 1518 1518 1517 1517 1514 1506 1505 1508 1510 1511 1511 1510 1511 1512 1513 1515 1517 1518 1520 1521 1523
1508 1507 1507 1506 1506 1506 1507 1507 1508 1508 1509 1509 1510 1510 1511 1512 1513 1513 1513 1514 1514 1514 1513 1513 1513 1515 1514 1512 1514 1515 1515 1516 1517 1518 1519 1520 1521 1521 1522 1523 1523 1523 1523 1524 1524 1524 1524 1524 1525 1527 1525 1523 1521 1521 1523 1523 1524 1527 1526 1526 1526 1524 1520 1518 1518 1515 1514 1519 1518 1515 1515 1511 1506 1503 1504 1507 1510 1510 1510 1510 1511 1512 1513 1515 1516 1517 1519 1520
1507 1506 1506 1505 1505 1506 1506 1506 1507 1507 1508 1509 1509 1510 1511 1511 1511 1512 1513 1513 1512 1511 1511 1512 1512 1512 1512 1512 1514 1515 1515 1516 1517 1518 1520 1520 1521 1522 1522 1523 1523 1522 1521 1520 1521 1521 1523 1526 1526 1526 1522 1518 1516 1518 1519 1521 1524 1526 1525 1524 1524 1523 1520 1516 1517 1515 1514 1520 1516 1511 1512 1510 1506 1503 1500 1505 1508 1508 1509 1509 1509 1510 1511 1512 1514 1515 1516 1517
1505 1505 1504 1504 1504 1505 1505 1506 1506 1507 1508 1508 1509 1510 1510 1509 1508 1509 1511 1511 1511 1511 1511 1512 1512 1512 1512 1513 1514 1515 1515 1516 1517 1519 1519 1520 1521 1521 1521 1521 1521 1521 1519 1518 1519 1520 1524 1527 1524 1517 1514 1514 1516 1518 1520 1522 1523 1525 1525 1524 1522 1521 1518 1514 1517 1516 1515 1520 1515 1509 1512 1510 1505 1502 1499 1502 1505 1505 1506 1506 1507 1507 1508 1510 1511 1512 1514 1515
1504 1503 1503 1503 1504 1504 1505 1505 1506 1506 1507 1508 1509 1509 1509 1509 1508 1509 1509 1509 1509 1510 1510 1511 1511 1512 1512 1513 1514 1514 1515 1515 1516 1519 1519 1520 1521 1519 1519 1520 1519 1518 1518 1520 1522 1524 1526 1525 1518 1512 1512 1516 1519 1519 1521 1523 1524 1525 1523 1523 1523 1518 1514 1514 1517 1516 1516 1520 1516 1511 1513 1509 1501 1498 1497 1499 1501 1502 1503 1503 1504 1505 1506 1507 1508 1510 1511 1512
1503 1502 1502 1503 1503 1503 1504 1504 1505 1506 1506 1507 1508 1509 1509 1509 1509 1510 1509 1508 1508 1509 1510 1510 1511 1512 1512 1513 1513 1514 1514 1513 1515 1517 1518 1520 1520 1519 1519 1518 1518 1518 1519 1521 1522 1525 1525 1519 1511 1510 1514 1518 1520 1521 1522 1524 1523 1522 1520 1521 1521 1513 1513 1519 1519 1517 1516 1517 1516 1515 1515 1507 1499 1498 1496 1497 1499 1499 1501 1501 1502 1503 1503 1504 1505 1507 1508 1510
1502 1501 1502 1502 1502 1503 1503 1504 1505 1505 1506 1507 1508 1509 1509 1509 1509 1509 1509 1507 1506 1508 1510 1510 1510 1511 1512 1512 1513 1514 1514 1513 1513 1515 1518 1519 1518 1519 1518 1516 1518 1520 1519 1518 1519 1521 1519 1514 1511 1512 1515 1517 1520 1522 1523 1524 1521 1517 1516 1517 1517 1512 1512 1515 1514 1514 1514 1514 1516 1517 1516 1506 1500 1503 1499 1496 1498 1498 1499 1500 1500 1501 1501 1502 1503 1504 1506 1507
1501 1500 1501 1501 1502 1503 1503 1505 1505 1505 1507 1507 1508 1508 1508 1509 1509 1509 1509 1507 1507 1508 1508 1509 1510 1510 1511 1512 1512 1513 1513 1513 1513 1514 1517 1518 1518 1519 1518 1517 1519 1520 1518 1518 1521 1520 1515 1512 1513 1516 1516 1516 1520 1520 1519 1520 1519 1515 1511 1511 1512 1511 1511 1511 1511 1514 1515 1518 1516 1515 1521 1514 1500 1501 1500 1496 1496 1496 1496 1497 1497 1499 1499 1501 1501 1502 1503 1505
1500 1500 1500 1501 1501 1502 1503 1505 1505 1506 1507 1507 1508 1508 1508 1509 1508 1509 1508 1506 1508 1508 1507 1509 1509 1509 1510 1511 1512 1513 1514 1513 1512 1515 1516 1517 1518 1518 1518 1518 1518 1518 1517 1517 1519 1517 1512 1511 1513 1516 1517 1517 1519 1519 1514 1515 1519 1517 1509 1506 1510 1511 1512 1512 1512 1516 1518 1519 1515 1513 1522 1521 1504 1499 1499 1496 1496 1495 1494 1494 1494 1496 1498 1498 1499 1500 1501 1503
1499 1499 1500 1500 1501 1502 1503 1504 1506 1507 1507 1508 1508 1507 1509 1509 1508 1510 1508 1510 1512 1507 1506 1509 1508 1508 1509 1510 1511 1513 1515 1513 1511 1515 1515 1517 1518 1518 1518 1517 1517 1518 1515 1518 1521 1515 1510 1513 1514 1515 1516 1517 1519 1517 1511 1512 1518 1516 1507 1506 1510 1510 1511 1511 1511 1514 1513 1512 1513 1510 1514 1521 1515 1503 1497 1496 1496 1494 1494 1496 1495 1494 1495 1496 1497 1498 1499 1501
1498 1499 1499 1500 1501 1503 1503 1504 1506 1507 1508 1508 1508 1508 1509 1508 1509 1509 1509 1518 1517 1505 1504 1507 1507 1508 1509 1510 1510 1511 1512 1510 1511 1515 1514 1516 1517 1517 1517 1514 1514 1516 1513 1518 1522 1512 1507 1512 1513 1513 1516 1517 1514 1510 1507 1511 1515 1510 1505 1507 1509 1509 1509 1508 1509 1510 1508 1512 1517 1511 1510 1522 1520 1501 1491 1494 1497 1497 1496 1497 1497 1493 1493 1495 1495 1497 1498 1500
1499 1499 1499 1500 1502 1503 1504 1505 1506 1507 1508 1508 1508 1509 1508 1508 1511 1507 1509 1518 1513 1502 1504 1506 1507 1509 1508 1510 1510 1509 1509 1509 1511 1513 1513 1515 1516 1516 1516 1514 1513 1514 1513 1515 1516 1510 1507 1509 1508 1509 1514 1513 1508 1504 1505 1510 1512 1507 1505 1508 1507 1507 1507 1507 1509 1508 1511 1520 1520 1511 1510 1522 1523 1504 1493 1496 1498 1496 1494 1494 1495 1492 1492 1494 1494 1496 1497 1498
1499 1499 1500 1501 1502 1503 1504 1505 1506 1507 1508 1508 1509 1509 1508 1510 1509 1509 1516 1517 1506 1502 1505 1505 1506 1507 1507 1509 1510 1508 1508 1509 1510 1512 1513 1515 1515 1515 1514 1514 1513 1513 1512 1512 1513 1509 1505 1506 1508 1508 1510 1507 1504 1504 1505 1507 1508 1506 1508 1508 1507 1507 1507 1508 1508 1509 1519 1525 1517 1509 1508 1517 1524 1509 1495 1496 1495 1491 1490 1492 1493 1490 1491 1492 1492 1494 1495 1497
1500 1500 1501 1501 1502 1504 1505 1506 1506 1507 1507 1508 1509 1508 1509 1509 1506 1510 1518 1511 1501 1504 1506 1504 1505 1504 1505 1508 1508 1509 1508 1508 1509 1511 1513 1513 1514 1515 1515 1515 1514 1514 1514 1512 1510 1506 1504 1507 1507 1505 1505 1504 1505 1507 1506 1505 1505 1508 1509 1508 1511 1512 1511 1513 1512 1515 1528 1529 1515 1508 1506 1514 1525 1512 1493 1490 1487 1485 1487 1490 1490 1489 1489 1491 1492 1493 1494 1495
1501 1502 1502 1503 1503 1504 1505 1506 1506 1507 1507 1508 1508 1509 1509 1509 1508 1509 1510 1504 1504 1507 1503 1502 1504 1503 1505 1505 1505 1507 1507 1508 1508 1508 1509 1510 1512 1512 1512 1513 1512 1516 1518 1512 1508 1507 1504 1502 1499 1500 1502 1502 1506 1508 1507 1506 1506 1509 1509 1510 1519 1522 1522 1527 1523 1520 1525 1521 1510 1509 1512 1517 1519 1506 1493 1487 1482 1482 1485 1486 1487 1487 1489 1491 1491 1492 1493 1495
1503 1503 1503 1504 1504 1504 1505 1505 1506 1507 1507 1507 1508 1508 1507 1511 1513 1508 1503 1503 1506 1503 1498 1500 1501 1501 1504 1506 1505 1505 1506 1508 1507 1507 1507 1507 1509 1509 1507 1506 1506 1513 1516 1510 1510 1510 1506 1499 1495 1500 1501 1498 1502 1507 1508 1506 1505 1508 1508 1511 1520 1525 1535 1541 1532 1524 1523 1516 1509 1510 1516 1518 1511 1498 1490 1486 1482 1482 1484 1485 1487 1487 1489 1491 1491 1492 1493 1493
1504 1504 1504 1504 1504 1505 1505 1505 1506 1506 1507 1507 1507 1507 1509 1514 1513 1505 1502 1502 1501 1499 1499 1501 1501 1502 1504 1505 1504 1503 1506 1508 1505 1506 1509 1508 1511 1510 1506 1505 1505 1508 1511 1511 1511 1510 1513 1508 1497 1497 1498 1494 1497 1499 1498 1496 1498 1501 1498 1502 1510 1514 1528 1536 1529 1526 1525 1518 1514 1516 1517 1515 1509 1498 1487 1482 1480 1481 1483 1484 1486 1488 1489 1490 1491 1491 1492 1492
1505 1504 1505 1504 1504 1505 1505 1505 1506 1505 1506 1507 1505 1506 1510 1512 1508 1504 1503 1502 1499 1499 1500 1500 1501 1505 1506 1504 1502 1500 1504 1507 1504 1506 1509 1508 1509 1508 1505 1505 1504 1505 1509 1513 1510 1507 1514 1509 1492 1490 1493 1491 1494 1492 1489 1495 1501 1497 1491 1500 1507 1501 1507 1517 1516 1515 1516 1517 1516 1516 1514 1503 1495 1489 1479 1477 1479 1479 1482 1483 1484 1487 1488 1489 1491 1490 1491 1492
1506 1505 1505 1505 1505 1505 1505 1505 1505 1505 1506 1505 1504 1506 1507 1507 1505 1503 1503 1501 1501 1501 1502 1502 1502 1505 1507 1505 1504 1503 1503 1505 1505 1507 1508 1506 1506 1507 1506 1504 1503 1503 1506 1509 1508 1506 1513 1506 1490 1490 1492 1488 1491 1490 1487 1496 1502 1498 1498 1503 1498 1489 1494 1508 1514 1509 1512 1524 1518 1510 1509 1499 1493 1492 1483 1480 1483 1482 1484 1482 1482 1486 1487 1488 1490 1489 1490 1491
1506 1506 1506 1506 1506 1506 1506 1506 1505 1506 1506 1503 1505 1508 1505 1504 1503 1502 1501 1501 1501 1500 1501 1504 1504 1504 1505 1505 1505 1504 1504 1505 1506 1507 1507 1507 1508 1509 1507 1505 1504 1503 1502 1504 1505 1502 1508 1506 1491 1490 1494 1489 1488 1490 1488 1489 1493 1498 1503 1497 1488 1489 1494 1503 1517 1516 1518 1529 1518 1507 1510 1505 1504 1504 1490 1484 1486 1485 1486 1482 1481 1485 1486 1487 1488 1488 1490 1490
1507 1507 1507 1507 1506 1506 1506 1505 1505 1506 1504 1503 1507 1509 1505 1503 1503 1502 1501 1501 1501 1500 1500 1502 1503 1502 1502 1503 1503 1503 1504 1507 1506 1506 1505 1507 1510 1509 1508 1507 1506 1504 1502 1505 1507 1501 1504 1509 1495 1486 1492 1491 1486 1492 1495 1491 1489 1492 1494 1488 1490 1504 1507 1506 1518 1521 1523 1530 1520 1510 1509 1508 1509 1505 1492 1488 1486 1485 1488 1484 1481 1483 1483 1485 1486 1487 1489 1490
1508 1507 1508 1507 1506 1506 1505 1505 1505 1505 1503 1503 1508 1509 1506 1504 1503 1502 1502 1502 1500 1500 1500 1500 1501 1501 1500 1501 1502 1502 1504 1505 1503 1504 1505 1506 1510 1509 1507 1508 1507 1504 1503 1504 1506 1502 1502 1511 1505 1489 1487 1490 1489 1493 1497 1495 1491 1490 1491 1488 1489 1498 1502 1503 1507 1508 1515 1524 1523 1517 1513 1508 1503 1495 1489 1488 1484 1483 1486 1483 1479 1480 1481 1484 1485 1486 1488 1489
1507 1506 1507 1508 1506 1506 1505 1505 1504 1503 1503 1504 1507 1507 1506 1505 1503 1503 1503 1502 1500 1500 1501 1499 1499 1501 1502 1501 1502 1502 1504 1503 1501 1502 1504 1505 1510 1510 1507 1508 1507 1505 1503 1502 1503 1501 1501 1509 1511 1495 1487 1493 1494 1491 1491 1492 1491 1493 1496 1495 1493 1493 1495 1498 1499 1497 1503 1515 1519 1521 1521 1508 1493 1486 1484 1483 1480 1479 1480 1479 1479 1479 1480 1482 1484 1485 1487 1488
1507 1505 1507 1508 1506 1506 1505 1504 1504 1502 1502 1505 1506 1506 1507 1506 1504 1503 1503 1502 1501 1500 1500 1500 1499 1501 1503 1503 1503 1503 1503 1504 1502 1503 1505 1505 1509 1511 1509 1508 1507 1505 1503 1503 1502 1501 1501 1506 1508 1500 1494 1496 1491 1482 1482 1485 1486 1489 1491 1489 1489 1492 1496 1506 1509 1499 1496 1504 1506 1512 1518 1503 1483 1479 1480 1478 1477 1477 1476 1478 1479 1478 1480 1482 1483 1485 1486 1487
1506 1505 1508 1508 1506 1506 1504 1504 1505 1503 1503 1507 1509 1508 1508 1508 1505 1504 1504 1502 1501 1500 1499 1501 1502 1503 1505 1505 1505 1504 1503 1505 1505 1504 1506 1507 1507 1510 1509 1508 1507 1504 1502 1503 1500 1499 1500 1503 1505 1503 1496 1489 1482 1477 1480 1482 1481 1484 1485 1481 1481 1484 1491 1506 1513 1503 1497 1500 1497 1501 1514 1504 1480 1474 1477 1475 1476 1477 1477 1478 1477 1478 1480 1481 1482 1484 1485 1486
1506 1507 1508 1507 1506 1506 1504 1505 1506 1505 1506 1509 1510 1509 1509 1508 1506 1505 1505 1504 1503 1502 1502 1504 1504 1505 1507 1506 1505 1506 1506 1508 1509 1507 1508 1508 1508 1509 1509 1508 1507 1503 1501 1503 1501 1500 1502 1505 1506 1503 1493 1484 1479 1478 1479 1480 1482 1486 1485 1481 1481 1482 1484 1490 1494 1494 1498 1502 1500 1503 1515 1507 1483 1473 1476 1475 1475 1476 1477 1478 1477 1477 1479 1479 1482 1483 1484 1486
1508 1509 1509 1508 1507 1505 1504 1506 1507 1508 1510 1510 1509 1510 1510 1510 1509 1508 1508 1507 1507 1506 1506 1508 1507 1507 1508 1506 1506 1507 1508 1511 1512 1509 1509 1509 1509 1509 1509 1509 1507 1504 1504 1507 1505 1503 1505 1505 1506 1508 1505 1499 1494 1491 1490 1487 1485 1486 1483 1481 1483 1482 1483 1485 1487 1490 1497 1498 1497 1503 1511 1503 1485 1476 1475 1475 1476 1475 1475 1477 1477 1477 1478 1480 1481 1482 1483 1485
1509 1509 1509 1509 1508 1506 1506 1507 1507 1509 1511 1511 1511 1512 1511 1511 1513 1512 1511 1510 1510 1508 1509 1511 1510 1509 1508 1507 1508 1508 1508 1509 1511 1510 1509 1508 1508 1509 1509 1509 1508 1506 1506 1508 1504 1503 1506 1505 1506 1512 1515 1513 1510 1508 1502 1493 1487 1484 1482 1484 1485 1484 1486 1489 1491 1496 1502 1501 1499 1503 1506 1499 1487 1480 1477 1476 1477 1476 1474 1476 1477 1477 1478 1479 1480 1482 1483 1484
1508 1509 1509 1509 1509 1508 1509 1510 1509 1509 1510 1511 1513 1514 1513 1513 1514 1513 1512 1512 1512 1511 1511 1512 1511 1510 1510 1510 1511 1512 1510 1509 1511 1511 1511 1510 1509 1508 1508 1508 1509 1507 1507 1507 1504 1503 1504 1503 1503 1509 1511 1507 1506 1504 1496 1491 1490 1489 1486 1485 1485 1484 1484 1487 1493 1499 1502 1504 1504 1500 1499 1499 1491 1480 1476 1476 1478 1477 1474 1474 1476 1477 1478 1479 1480 1482 1482 1483
1509 1511 1512 1511 1512 1511 1511 1512 1511 1510 1511 1512 1516 1517 1516 1514 1514 1514 1514 1514 1514 1514 1513 1513 1512 1513 1515 1515 1515 1516 1514 1512 1513 1513 1514 1513 1510 1507 1506 1506 1508 1508 1506 1505 1503 1502 1506 1505 1502 1504 1505 1499 1497 1495 1490 1490 1493 1490 1486 1484 1483 1484 1484 1486 1492 1495 1495 1502 1505 1496 1494 1501 1494 1479 1475 1480 1481 1478 1475 1474 1474 1476 1478 1479 1480 1481 1482 1484
1512 1515 1516 1515 1515 1514 1513 1514 1514 1512 1512 1514 1516 1518 1517 1516 1517 1517 1517 1516 1515 1515 1514 1516 1516 1516 1517 1518 1517 1517 1517 1516 1516 1516 1516 1515 1512 1510 1506 1504 1505 1507 1505 1504 1503 1503 1508 1506 1500 1500 1501 1495 1492 1492 1490 1491 1492 1488 1486 1483 1481 1484 1487 1487 1488 1487 1490 1498 1501 1496 1496 1496 1487 1477 1477 1481 1480 1478 1476 1475 1475 1476 1478 1478 1480 1481 1482 1483
1514 1516 1518 1517 1517 1518 1518 1518 1517 1515 1515 1516 1518 1519 1518 1518 1520 1520 1519 1518 1517 1517 1517 1519 1520 1519 1518 1518 1518 1519 1521 1520 1519 1519 1519 1518 1517 1514 1511 1508 1505 1505 1504 1504 1504 1504 1507 1505 1500 1501 1501 1495 1491 1491 1490 1490 1491 1488 1486 1482 1481 1482 1484 1485 1484 1482 1485 1488 1487 1490 1495 1489 1480 1478 1479 1478 1478 1478 1477 1477 1476 1476 1478 1478 1480 1481 1482 1483
1517 1518 1519 1518 1519 1520 1520 1520 1518 1516 1517 1518 1520 1522 1521 1520 1521 1522 1521 1521 1521 1520 1519 1521 1522 1520 1519 1519 1519 1520 1522 1522 1522 1521 1520 1521 1518 1515 1515 1512 1508 1506 1506 1506 1505 1505 1507 1506 1501 1501 1502 1496 1490 1488 1488 1489 1490 1490 1486 1480 1480 1482 1483 1484 1484 1482 1484 1485 1481 1484 1491 1487 1479 1477 1478 1477 1477 1477 1477 1477 1476 1476 1477 1478 1479 1480 1481 1482
1519 1520 1520 1519 1520 1522 1522 1521 1519 1517 1518 1520 1522 1523 1523 1523 1524 1524 1523 1524 1524 1523 1523 1523 1523 1521 1520 1520 1520 1521 1521 1523 1523 1521 1520 1521 1519 1517 1516 1513 1511 1511 1510 1508 1508 1507 1508 1507 1501 1501 1506 1499 1489 1488 1489 1486 1486 1488 1487 1482 1480 1481 1482 1482 1480 1480 1482 1485 1484 1486 1492 1492 1484 1478 1478 1477 1476 1476 1476 1476 1476 1476 1477 1478 1479 1479 1480 1482
1521 1521 1521 1520 1521 1523 1522 1521 1519 1519 1522 1525 1525 1525 1526 1525 1526 1525 1525 1525 1525 1525 1525 1525 1524 1523 1520 1520 1521 1522 1523 1523 1522 1521 1520 1520 1518 1517 1516 1514 1513 1514 1512 1510 1511 1508 1508 1508 1504 1503 1508 1501 1490 1489 1489 1489 1494 1494 1487 1483 1482 1480 1480 1477 1476 1478 1481 1483 1487 1490 1493 1491 1485 1480 1480 1478 1477 1477 1477 1477 1478 1477 1477 1478 1478 1479 1479 1481